Regional Weather Roundup
Issued by NWS Sterling, VA

Home | Current Version | Previous Version | Text Only | Print | Product List | Glossary Off
Versions: 1 2 3 4 5 6 7 8 9 10 11 12 13 14 15 16 17 18 19 20 21 22 23 24 25 26 27 28 29 30 31 32 33 34 35 36 37 38 39 40 41 42 43 44 45 46 47 48 49 50

000
ASUS41 KLWX 230311
RWRLWX

REGIONAL WEATHER ROUNDUP
NATIONAL WEATHER SERVICE BALTIMORE MD/WASHINGTON DC
1100 PM EDT SUN OCT 22 2017

Note: "FAIR" indicates few or no clouds below 12,000 feet
with no significant weather and/or obstructions to visibility.
 TC=TEMPERATURE CELSIUS

 * =Non NWS site. Station does not report precipitation (e.g. rain,
    snow, etc.), thunder, or fog.

DCZ001-MDZ009-015-VAZ040>042-051-053>054-230400-
WASHINGTON METRO

CITY           SKY/WX    TMP DP  RH WIND       PRES   REMARKS
WASHINGTON NAT MOCLDY    64  58  80 S7        30.33F
DULLES         CLOUDY    63  58  83 SE8       30.30F
ANDREWS AFB    PTCLDY    59  56  89 SE6       30.32F
FT BELVOIR     MOCLDY    54  52  91 CALM      30.31F
QUANTICO       MOCLDY    65  61  87 S6        30.32F
COLLEGE PARK*  MOCLDY    54  51  90 CALM      30.33S
LEESBURG*      PTCLDY    61  55  82 S3        30.32F
MANASSAS*      CLOUDY    61  57  87 S6        30.31F
GAITHERSBURG*  PTCLDY    58  51  78 CALM      30.32F

$$

MDZ006>007-011-014-230400-
BALTIMORE METRO

CITY           SKY/WX    TMP DP  RH WIND       PRES   REMARKS
BWI AIRPORT    CLOUDY    56  54  93 CALM      30.33S
MD SCIENCE CTR   N/A     65  58  78 MISG      30.34S
MARTIN STATE   CLOUDY    59  59 100 CALM      30.35F
ANNAPOLIS      CLOUDY    65  62  90 S8        30.32F
FORT MEADE*    MOCLDY    50  48  93 CALM      30.36S

$$

MDZ012-015-019>023-230400-
MARYLAND EASTERN SHORE

CITY           SKY/WX    TMP DP  RH WIND       PRES   REMARKS
OCEAN CITY     CLOUDY    65  64  97 CALM      30.35F
SALISBURY      CLOUDY    61  61 100 E5        30.34S
CAMBRIDGE*     CLOUDY    57  57 100 SE5       30.34S
EASTON*        PTCLDY    60  56  86 SE3       30.37F

$$

MDZ017>025-230400-
SOUTHERN MARYLAND

CITY           SKY/WX    TMP DP  RH WIND       PRES   REMARKS
PATUXENT RIVER PTCLDY    65  62  90 SE5       30.32F
ST INIGOES     PTCLDY    62  60  93 E3        30.32F
LEONARDTOWN*   NOT AVBL

$$

MDZ003>005-230400-
NORTH CENTRAL MARYLAND

CITY           SKY/WX    TMP DP  RH WIND       PRES   REMARKS
FREDERICK*     NOT AVBL
HAGERSTOWN APT MOCLDY    65  50  58 SE9       30.29F
WESTMINSTER*   PTCLDY    61  54  77 SE6       30.33F

$$

MDZ501>502-230400-
WESTERN MARYLAND

CITY           SKY/WX    TMP DP  RH WIND       PRES   REMARKS
OAKLAND*       PTCLDY    55  48  76 SE16G23   30.25F
CUMBERLAND*    CLOUDY    63  54  72 CALM      30.30S

$$

VAZ025>031-230400-
SHENANDOAH VALLEY

CITY           SKY/WX    TMP DP  RH WIND       PRES   REMARKS
WINCHESTER*    CLOUDY    57  52  82 CALM      30.29S
FRONT ROYAL*   CLOUDY    64  55  72 S5        30.28S
LURAY*         CLOUDY    57  54  88 S5        30.29S
NEW MARKET*    CLOUDY    62  53  73 SW5       30.29S
STAUNTON*      CLOUDY    53  49  85 CALM      30.31F
WAYNESBORO*    CLOUDY    59  55  87 S9        30.31F

$$

WVZ021-048>050-054>055-230400-
EASTERN WEST VIRGINIA PANHANDLE

CITY           SKY/WX    TMP DP  RH WIND       PRES   REMARKS
MARTINSBURG    CLOUDY    59  53  80 CALM      30.28F
PETERSBURG*    CLOUDY    55  52  89 CALM      30.27S

$$

VAZ036>039-050-230400-
CENTRAL FOOTHILLS

CITY           SKY/WX    TMP DP  RH WIND       PRES   REMARKS
CHARLOTTESVILL CLOUDY    67  53  61 S9        30.30S
CULPEPER*      PTCLDY    61  54  79 CALM      30.31F
ORANGE*        PTCLDY    54  54 100 CALM      30.31S
GORDONSVILLE*  PTCLDY    55  55 100 CALM      30.30F
WARRENTON*     MOCLDY    64  55  71 SE6       30.30F

$$

VAZ055>057-230400-
NORTH AND CENTRAL PIEDMONT

CITY           SKY/WX    TMP DP  RH WIND       PRES   REMARKS
FREDERICKSBRG* MOCLDY    58  58 100 CALM      30.30F
STAFFORD*      CLOUDY    54  54 100 CALM      30.35F

$$

NCZ024-NYZ072-PAZ021-071-VAZ022-071-230400-
OTHER REGIONAL OBSERVATIONS

CITY           SKY/WX    TMP DP  RH WIND       PRES   REMARKS
NEW YORK CITY  PTCLDY    63  54  72 VRB3      30.40S
PHILADELPHIA   PTCLDY    59  55  87 CALM      30.35F
PITTSBURGH     CLOUDY    66  52  60 SE8       30.17S
ROANOKE        MOCLDY    59  53  80 NW3       30.31F
RICHMOND       CLOUDY    61  58  90 CALM      30.31F
RALEIGH        MOCLDY    66  60  81 SE7       30.29F

$$

ANZ530>537-230400-
MARINE OBSERVATIONS

STATION/POSITION TIME  TEMP    WIND        PRES
                       AIR SEA DIR/SP/G
                 (UTC) (F)     (DEG/KT/KT) (MB)
THOMAS PT LIGHT  0300   66 68  150/ 12/ 13   N/A
BALT KEY BRIDGE  0242   66     140/  9/ 10 1027.1F
COVE POINT       0242   68     180/ 13/ 15 1027.8F
LEWISETTA        0242   65 67  170/  3/  4 1026.8F
SOLOMONS ISLAND  0242   66 69  160/  4/  5 1026.7F
PINEY POINT      0236          170/  7/  8   N/A

$$




USA.gov is the U.S. government's official web portal to all federal, state and local government web resources and services.